Le nostre stazioni meteo in Italia

Pubblicità
Il mio iltempo24.it
Vipiteno, Italia (16014): Temperatura & dewpoint: 13.04.2019 17:00:00 - 19.04.2019 17:00:00 (CEST)Vipiteno, Italia (16014): velocità del vento: 13.04.2019 17:00:00 - 19.04.2019 17:00:00 (CEST)Vipiteno, Italia (16014): direzione del vento: 13.04.2019 17:00:00 - 19.04.2019 17:00:00 (CEST)
Data & Tempo tt [°C] td [°C] ff [km/h] ff [kn] dd
19.04.2019 17:00:00 - - - - -
19.04.2019 16:00:00 15,7 0,2 5 3 SE
19.04.2019 15:00:00 14,5 0,6 8 4 O
19.04.2019 14:00:00 14,3 2,4 4 2 O
19.04.2019 13:00:00 13,5 1,4 8 4 OSO
19.04.2019 12:00:00 12,2 2,3 4 2 O
19.04.2019 11:00:00 10,2 5,5 4 2 S
19.04.2019 10:00:00 7,9 6,3 2 1 ENE
19.04.2019 09:00:00 6,0 4,5 0 0 N
19.04.2019 08:00:00 3,5 2,0 2 1 NNE
19.04.2019 07:00:00 3,0 1,5 2 1 ONO
19.04.2019 06:00:00 3,1 1,6 2 1 ONO
19.04.2019 05:00:00 3,5 2,0 2 1 O
19.04.2019 04:00:00 5,0 3,5 4 2 O
19.04.2019 03:00:00 5,5 4,0 0 0 N
19.04.2019 02:00:00 6,0 4,5 4 2 O
19.04.2019 01:00:00 6,4 4,7 4 2 O
19.04.2019 00:00:00 6,8 4,9 4 2 O
18.04.2019 23:00:00 7,2 5,0 4 2 O
18.04.2019 22:00:00 7,5 5,1 5 3 O
18.04.2019 21:00:00 8,0 5,1 9 5 O
18.04.2019 20:00:00 8,5 5,2 8 4 ONO
18.04.2019 19:00:00 11,5 3,2 8 4 OSO
18.04.2019 18:00:00 12,4 4,0 5 3 ONO
18.04.2019 17:00:00 14,6 1,0 15 8 ONO
18.04.2019 16:00:00 14,4 1,9 15 8 O
18.04.2019 15:00:00 14,3 1,8 4 2 N
18.04.2019 14:00:00 13,6 2,4 4 2 SO
18.04.2019 13:00:00 13,6 1,5 9 5 OSO
18.04.2019 12:00:00 12,3 1,5 4 2 NO
18.04.2019 11:00:00 10,0 3,2 2 1 SSO
18.04.2019 10:00:00 7,9 3,7 2 1 N
18.04.2019 09:00:00 4,9 2,4 2 1 NNE
18.04.2019 08:00:00 3,6 1,3 0 0 N
18.04.2019 07:00:00 3,1 0,6 0 0 N
18.04.2019 06:00:00 2,6 0,1 2 1 NNE
18.04.2019 05:00:00 2,2 -0,4 2 1 NE
18.04.2019 04:00:00 1,8 -1,2 0 0 N
18.04.2019 03:00:00 1,6 -2,2 2 1 O
18.04.2019 02:00:00 2,7 -1,2 2 1 ONO
18.04.2019 01:00:00 3,5 -1,1 4 2 N
18.04.2019 00:00:00 4,6 -1,3 4 2 O
17.04.2019 23:00:00 6,0 -0,4 4 2 ONO
17.04.2019 22:00:00 7,3 -0,3 8 4 ONO
17.04.2019 21:00:00 9,0 0,1 8 4 O
17.04.2019 20:00:00 11,1 -0,2 9 5 OSO
17.04.2019 19:00:00 14,1 0,6 8 4 ONO
17.04.2019 18:00:00 15,0 -2,1 9 5 OSO
17.04.2019 17:00:00 14,6 1,0 11 6 NNO
17.04.2019 16:00:00 14,5 -0,9 9 5 ONO
17.04.2019 15:00:00 15,3 -0,6 11 6 NNO
17.04.2019 14:00:00 14,9 -0,5 5 3 SO
17.04.2019 13:00:00 13,9 0,1 8 4 OSO
17.04.2019 12:00:00 11,7 2,6 4 2 SSE
17.04.2019 11:00:00 9,1 2,1 4 2 N
17.04.2019 10:00:00 5,9 3,9 2 1 O
17.04.2019 09:00:00 2,0 0,5 2 1 N
17.04.2019 08:00:00 0,0 -1,5 2 1 NO
17.04.2019 07:00:00 -1,2 -3,0 2 1 SSO
17.04.2019 06:00:00 -0,6 -2,5 0 0 N
17.04.2019 05:00:00 -0,1 -2,2 0 0 N
17.04.2019 04:00:00 0,4 -2,0 2 1 SO
17.04.2019 03:00:00 - - - - -
17.04.2019 02:00:00 1,4 -2,2 2 1 OSO
17.04.2019 01:00:00 2,5 -1,7 0 0 N
17.04.2019 00:00:00 3,6 -0,7 2 1 O
16.04.2019 23:00:00 5,1 -0,2 4 2 O
16.04.2019 22:00:00 6,0 -0,2 2 1 S
16.04.2019 21:00:00 7,8 0,0 2 1 ONO
16.04.2019 20:00:00 9,9 - - - -
16.04.2019 19:00:00 11,5 0,5 4 2 S
16.04.2019 18:00:00 11,9 -0,7 8 4 OSO
16.04.2019 17:00:00 11,7 -1,6 9 5 ESE
16.04.2019 16:00:00 11,7 -0,3 9 5 E
16.04.2019 15:00:00 11,5 1,6 11 6 E
16.04.2019 14:00:00 11,1 -0,5 11 6 E
16.04.2019 13:00:00 11,0 2,0 13 7 E
16.04.2019 12:00:00 10,1 2,4 9 5 ESE
16.04.2019 11:00:00 8,4 2,8 9 5 E
16.04.2019 10:00:00 6,5 3,8 2 1 N
16.04.2019 09:00:00 3,9 2,4 2 1 ENE
16.04.2019 08:00:00 2,2 0,6 2 1 ENE
16.04.2019 07:00:00 1,8 -0,3 0 0 N
16.04.2019 06:00:00 2,4 0,3 0 0 N
16.04.2019 05:00:00 2,4 0,3 0 0 N
16.04.2019 04:00:00 2,3 0,2 0 0 N
16.04.2019 03:00:00 2,1 -0,5 0 0 N
16.04.2019 02:00:00 1,9 -1,6 0 0 N
16.04.2019 01:00:00 2,8 -1,1 2 1 NO
16.04.2019 00:00:00 3,6 -0,8 0 0 N
15.04.2019 23:00:00 4,6 -0,5 4 2 O
15.04.2019 22:00:00 5,9 -0,7 0 0 N
15.04.2019 21:00:00 7,8 0,2 2 1 S
15.04.2019 20:00:00 9,8 -0,2 11 6 OSO
15.04.2019 19:00:00 11,3 0,6 4 2 NE
15.04.2019 18:00:00 11,9 -2,5 9 5 SE
15.04.2019 17:00:00 12,4 -1,6 8 4 E
15.04.2019 16:00:00 12,6 -1,5 13 7 E
15.04.2019 15:00:00 11,7 -1,6 11 6 E
15.04.2019 14:00:00 12,2 -0,4 9 5 E
15.04.2019 13:00:00 11,2 0,8 4 2 SO
15.04.2019 12:00:00 9,1 0,4 5 3 O
15.04.2019 11:00:00 7,4 0,7 4 2 NNO
15.04.2019 10:00:00 5,5 0,4 5 3 N
15.04.2019 09:00:00 2,9 -0,4 4 2 NNO
15.04.2019 08:00:00 0,6 -1,8 2 1 O
15.04.2019 07:00:00 0,7 -2,1 4 2 NNO
15.04.2019 06:00:00 1,2 -1,6 4 2 ONO
15.04.2019 05:00:00 2,1 -0,9 9 5 O
15.04.2019 04:00:00 3,2 -0,7 15 8 O
15.04.2019 03:00:00 3,9 -0,8 16 9 ONO
15.04.2019 02:00:00 3,1 -0,2 11 6 ONO
15.04.2019 01:00:00 3,8 -1,4 16 9 ONO
15.04.2019 00:00:00 4,1 -1,6 18 10 NO
14.04.2019 23:00:00 4,4 -1,5 21 11 O
14.04.2019 22:00:00 4,6 -1,5 18 10 NNO
14.04.2019 21:00:00 4,9 -1,4 11 6 O
14.04.2019 20:00:00 4,9 -1,6 15 8 NO
14.04.2019 19:00:00 5,2 -1,1 11 6 ONO
14.04.2019 18:00:00 5,4 -0,9 13 7 NNE
14.04.2019 17:00:00 5,6 -1,4 16 9 NNO
14.04.2019 16:00:00 6,3 -1,5 5 3 SO
14.04.2019 15:00:00 6,8 -0,5 11 6 N
14.04.2019 14:00:00 6,7 1,5 4 2 OSO
14.04.2019 13:00:00 5,3 3,6 2 1 N
14.04.2019 12:00:00 3,2 1,7 2 1 NNO
14.04.2019 11:00:00 2,0 0,5 2 1 NNO
14.04.2019 10:00:00 1,3 -0,2 4 2 N
14.04.2019 09:00:00 0,7 -0,8 4 2 NNO
14.04.2019 08:00:00 0,7 -0,9 2 1 N
14.04.2019 07:00:00 1,1 -0,5 2 1 SO
14.04.2019 06:00:00 1,4 -0,4 4 2 NNO
14.04.2019 05:00:00 1,9 -0,1 2 1 N
14.04.2019 04:00:00 2,7 0,7 4 2 N
14.04.2019 03:00:00 2,7 0,9 5 3 OSO
14.04.2019 02:00:00 2,9 0,8 5 3 ONO
14.04.2019 01:00:00 3,1 1,0 8 4 O
14.04.2019 00:00:00 3,5 0,8 11 6 O
13.04.2019 23:00:00 3,8 0,6 11 6 OSO
13.04.2019 22:00:00 4,3 0,6 9 5 O
13.04.2019 21:00:00 4,9 -0,4 18 10 NNO
13.04.2019 20:00:00 4,9 -0,4 11 6 OSO
13.04.2019 19:00:00 6,6 -0,9 16 9 N
13.04.2019 18:00:00 7,5 -2,4 31 17 NNO
13.04.2019 17:00:00 8,9 -0,8 39 21 N

tt = Temperatura
td = dewpoint
ff = velocità del vento
dd = direzione del vento

Stazioni seguenti

WeatherPro
AMSI
MeteoEarth